Погода в Дайтона Бич

США     29°12′38″N   81°01′22″W
темп.,
°C
ветер,
м/с
пор.,
м/с
влажн.,
%
обл.,
%
осадки,
мм/ч
давл.,
гПа
погр.,
м
15 мая, сб
сб1523:00+22ссв996162 0.0 1022929
02:00+22ссв785819 0.0 1021904
05:00+22ссв7858100 0.0 1021936
08:00+22св78550 0.0 10221199
11:00+23ссв87524 0.0 10231548
14:00+24св875034 0.0 10231851
17:00+23св885018 0.0 10221796
20:00+22св88530 0.0 10221627
16 мая, вс
вс1623:00+22всв89530 0.0 10221434
02:00+22всв78540 0.0 10221274
05:00+22всв675457 0.0 10211185
08:00+22всв67539 0.0 10231605
11:00+23всв77494 0.0 10241724
14:00+24всв674916 0.0 10231759
17:00+24всв665196 0.0 10221696
20:00+23всв675442 0.0 10221481
17 мая, пн
пн1723:00+23в67562 0.0 10221322
02:00+22в56595 0.0 10211079
05:00+22всв675997 0.0 10211067
08:00+23в6756100 0.0 10221316
11:00+24в6753100 0.0 10221418
14:00+24в675322 0.0 10221444
17:00+24всв675647 0.0 10211457
20:00+23всв686493 0.0 10211236
18 мая, вт
вт1823:00+23в68700 0.0 10221036
02:00+23в797225 0.1 1020935
05:00+23всв797228 0.2 1020888
08:00+24всв88706 0.3 10221096
11:00+25в79645 0.0 10231303
14:00+25в786224 0.0 10221376
17:00+25всв78645 0.0 10211340
20:00+24всв7970100 0.1 10221107
19 мая, ср
ср1923:00+24в81069100 0.1 10221257
02:00+23в91070100 0.2 10221109
05:00+24всв896673 0.2 10211488
08:00+24в796720 0.2 10221326
11:00+24в996319 0.4 10231373
14:00+25в8960100 0.6 10231585
17:00+25всв885990 0.0 10221583
20:00+24в810643 0.1 10231589